Location: La Trinit�
(48.1620°N, 3.4512°W)
Time: 09:35:32
(UTC+00:00)

SL-4 R/B - Pass Details

Date: 08 May 2021
Orbit: 427 x 663 km, 51.6° (Epoch: 12 June)

Event Time Altitude Azimuth Distance (km) Brightness Sun altitude
Rises 21:12:38 0° 289° (WNW) 2,797 6.8 -13.5°
Reaches altitude 10° 21:15:11 10° 275° (W) 1,936 5.5 -13.8°
Maximum altitude 21:18:44 23° 222° (SW) 1,308 3.9 -14.2°
Enters shadow 21:21:18 15° 180° (S) 1,701 4.1 -14.4°
